Погода в Палм Бич

США     26°41′34″N   80°02′11″W
темп.,
°C
ветер,
м/с
пор.,
м/с
влажн.,
%
обл.,
%
осадки,
мм/ч
давл.,
гПа
погр.,
м
19 апреля, пн
пн1923:00+27зюз4767100 0.3 1014269
02:00+26юз4974100 1.0 1013401
05:00+26ююз5107499 0.4 1012621
08:00+26ююз5117725 1.3 1014806
11:00+28юз696523 2.3 1014841
14:00+32юз7104559 3.2 10121504
17:00+31зюз795040 0.1 10111179
20:00+29зюз575721 0.1 1012746
20 апреля, вт
вт2023:00+26сз357514 1.0 1014252
02:00+25зсз22806 2.9 1014148
05:00+24зюз2380100 0.3 1014262
08:00+23юз35888 2.9 1015249
11:00+27ююз467156 1.6 1016792
14:00+31ю7105549 2.3 10131565
17:00+32юз71044100 0.3 10111230
20:00+29зюз81160100 0.3 1013768
21 апреля, ср
ср2123:00+27з5106799 0.2 1015597
02:00+26зюз51075100 0.8 1014711
05:00+25зюз51080100 0.0 1014592
08:00+24з698199 0.4 1016570
11:00+28з5764100 0.0 10171070
14:00+28зсз566263 2.8 1016888
17:00+28з356098 2.4 1015647
20:00+26св3370100 2.9 1016363
22 апреля, чт
чт2223:00+26вюв227091 1.1 1017120
02:00+24ссз56625 1.1 1016329
05:00+23с457221 0.1 1016499
08:00+25св56705 0.1 1018943
11:00+26всв556434 0.1 10191153
14:00+25св556623 0.2 10191019
17:00+25св666755 0.3 10181031
20:00+24св666892 0.3 10191079
23 апреля, пт
пт2323:00+24св7767100 0.0 10201179
02:00+24всв566497 0.1 10191128
05:00+24всв5662100 0.0 10181310
08:00+24в5663100 0.0 10201366
11:00+24в5562100 0.0 10211094
14:00+25в556290 0.1 10201100
17:00+25в546074 0.0 10181132
20:00+25в556383 0.0 1019725